When you browse on this site, cookies collect data to enhance your experience and personalize the content and advertising you see.
Visit our Privacy Policy to learn more. By continuing to use the site, you agree to this use of cookies and data.
  • In Hungary
  • List of Countries
  • For 7 days
  • Water Temperature
  • Satellite Maps
  • Weather Map
  • News
  • Weather Widgets
  • user-avatar
    Login

    Hourly Weather Shibam

    Today, 20 January, Sunday

    Time Temperature Precipitation Wind Pressure Humidity
    00:00 +11°C° 0 mm 0 mps 561 mmHg 81%
    01:00 +11°C° 0 mm 0 mps 560 mmHg 82%
    02:00 +11°C° 0 mm 0 mps 560 mmHg 84%
    03:00 +10°C° 0 mm 0 mps 560 mmHg 86%
    04:00 +10°C° 0 mm 0 mps 560 mmHg 87%
    05:00 +9°C° 0 mm 0 mps 560 mmHg 87%
    06:00 +9°C° 0 mm 0 mps 560 mmHg 88%
    07:00 +10°C° 0 mm 0 mps 560 mmHg 80%
    08:00 +11°C° 0 mm 0 mps 561 mmHg 71%
    09:00 +13°C° 0 mm 0 mps 562 mmHg 61%
    10:00 +15°C° 0 mm 1 mps 563 mmHg 53%
    11:00 +16°C° 0 mm 2 mps 563 mmHg 45%
    12:00 +18°C° 0 mm 2 mps 564 mmHg 38%
    13:00 +18°C° 0 mm 3 mps 563 mmHg 40%
    14:00 +18°C° 0 mm 3 mps 563 mmHg 42%
    15:00 +18°C° 0 mm 3 mps 563 mmHg 44%
    16:00 +17°C° 0 mm 3 mps 562 mmHg 52%
    17:00 +16°C° 0 mm 3 mps 562 mmHg 59%
    18:00 +15°C° 0 mm 2 mps 561 mmHg 67%
    19:00 +15°C° 0.1 mm 2 mps 561 mmHg 70%
    20:00 +14°C° 0.1 mm 1 mps 562 mmHg 73%
    21:00 +14°C° 0.1 mm 1 mps 562 mmHg 76%
    22:00 +13°C° 0.1 mm 1 mps 562 mmHg 77%
    23:00 +13°C° 0.1 mm 1 mps 561 mmHg 78%

    Tomorrow, 21 January, Monday

    Time Temperature Precipitation Wind Pressure Humidity
    00:00 +13°C° 0.1 mm 1 mps 561 mmHg 79%
    01:00 +13°C° 0.1 mm 1 mps 561 mmHg 78%
    02:00 +13°C° 0.1 mm 1 mps 561 mmHg 78%
    03:00 +12°C° 0.1 mm 1 mps 561 mmHg 78%
    04:00 +12°C° 0 mm 1 mps 561 mmHg 79%
    05:00 +11°C° 0 mm 0 mps 561 mmHg 81%
    06:00 +11°C° 0 mm 0 mps 560 mmHg 82%
    07:00 +11°C° 0 mm 0 mps 561 mmHg 78%
    08:00 +13°C° 0 mm 1 mps 562 mmHg 73%
    09:00 +14°C° 0 mm 1 mps 563 mmHg 69%
    10:00 +15°C° 0 mm 1 mps 563 mmHg 62%
    11:00 +16°C° 0 mm 2 mps 563 mmHg 54%
    12:00 +18°C° 0 mm 3 mps 563 mmHg 46%
    13:00 +18°C° 0 mm 3 mps 563 mmHg 48%
    14:00 +18°C° 0 mm 3 mps 562 mmHg 50%
    15:00 +18°C° 0 mm 3 mps 562 mmHg 51%
    16:00 +17°C° 0.1 mm 3 mps 562 mmHg 57%
    17:00 +16°C° 0.1 mm 3 mps 561 mmHg 63%
    18:00 +15°C° 0.1 mm 2 mps 561 mmHg 69%
    19:00 +15°C° 0.1 mm 2 mps 561 mmHg 72%
    20:00 +15°C° 0.1 mm 2 mps 561 mmHg 74%
    21:00 +14°C° 0.1 mm 1 mps 561 mmHg 76%
    22:00 +14°C° 0 mm 1 mps 561 mmHg 77%
    23:00 +14°C° 0 mm 1 mps 561 mmHg 78%

    Day after tomorrow, 22 January, Tuesday

    Time Temperature Precipitation Wind Pressure Humidity
    00:00 +12°C° 0 mm 0 mps 561 mmHg 80%
    01:00 +12°C° 0 mm 0 mps 560 mmHg 82%
    02:00 +11°C° 0 mm 0 mps 559 mmHg 85%
    03:00 +11°C° 0 mm 0 mps 559 mmHg 87%
    04:00 +10°C° 0 mm 0 mps 559 mmHg 89%
    05:00 +10°C° 0 mm 0 mps 558 mmHg 90%
    06:00 +10°C° 0 mm 0 mps 558 mmHg 91%
    07:00 +11°C° 0 mm 0 mps 559 mmHg 76%
    08:00 +14°C° 0 mm 1 mps 561 mmHg 62%
    09:00 +15°C° 0 mm 1 mps 562 mmHg 47%
    10:00 +16°C° 0 mm 2 mps 562 mmHg 41%
    11:00 +17°C° 0 mm 2 mps 563 mmHg 35%
    12:00 +19°C° 0 mm 3 mps 563 mmHg 28%
    13:00 +19°C° 0 mm 3 mps 562 mmHg 31%
    14:00 +19°C° 0 mm 3 mps 562 mmHg 33%
    15:00 +19°C° 0 mm 4 mps 561 mmHg 35%
    16:00 +18°C° 0 mm 3 mps 561 mmHg 42%
    17:00 +17°C° 0 mm 3 mps 561 mmHg 48%
    18:00 +16°C° 0 mm 3 mps 560 mmHg 55%
    19:00 +15°C° 0 mm 2 mps 560 mmHg 58%
    20:00 +15°C° 0 mm 1 mps 561 mmHg 62%
    21:00 +14°C° 0 mm 0 mps 561 mmHg 65%
    22:00 +13°C° 0 mm 0 mps 560 mmHg 67%
    23:00 +13°C° 0 mm 0 mps 560 mmHg 69%

    23 January, Wednesday

    Time Temperature Precipitation Wind Pressure Humidity
    00:00 +12°C° 0 mm 0 mps 560 mmHg 70%
    01:00 +12°C° 0 mm 0 mps 559 mmHg 72%
    02:00 +11°C° 0 mm 0 mps 558 mmHg 75%
    03:00 +11°C° 0 mm 0 mps 558 mmHg 77%
    04:00 +10°C° 0 mm 0 mps 558 mmHg 78%
    05:00 +10°C° 0 mm 0 mps 558 mmHg 80%
    06:00 +9°C° 0 mm 0 mps 558 mmHg 82%
    07:00 +11°C° 0 mm 0 mps 559 mmHg 73%
    08:00 +12°C° 0 mm 0 mps 560 mmHg 65%
    09:00 +15°C° 0 mm 1 mps 561 mmHg 56%
    10:00 +16°C° 0 mm 2 mps 562 mmHg 49%
    11:00 +17°C° 0 mm 2 mps 562 mmHg 42%
    12:00 +19°C° 0 mm 3 mps 562 mmHg 35%
    13:00 +19°C° 0 mm 3 mps 562 mmHg 35%
    14:00 +19°C° 0 mm 4 mps 561 mmHg 36%
    15:00 +19°C° 0 mm 4 mps 561 mmHg 37%
    16:00 +18°C° 0 mm 3 mps 561 mmHg 44%
    17:00 +17°C° 0 mm 3 mps 560 mmHg 51%
    18:00 +16°C° 0 mm 2 mps 560 mmHg 57%
    19:00 +16°C° 0 mm 2 mps 561 mmHg 62%
    20:00 +15°C° 0 mm 1 mps 561 mmHg 66%
    21:00 +14°C° 0 mm 1 mps 561 mmHg 71%
    22:00 +14°C° 0 mm 1 mps 561 mmHg 71%
    23:00 +13°C° 0 mm 0 mps 561 mmHg 71%

    24 January, Thursday

    Time Temperature Precipitation Wind Pressure Humidity
    00:00 +13°C° 0 mm 0 mps 560 mmHg 72%
    01:00 +12°C° 0 mm 0 mps 560 mmHg 70%
    02:00 +12°C° 0 mm 0 mps 559 mmHg 69%
    03:00 +11°C° 0 mm 0 mps 559 mmHg 67%
    04:00 +11°C° 0 mm 0 mps 559 mmHg 69%
    05:00 +10°C° 0 mm 0 mps 559 mmHg 70%
    06:00 +10°C° 0 mm 0 mps 558 mmHg 72%
    07:00 +11°C° 0 mm 0 mps 560 mmHg 64%
    08:00 +14°C° 0 mm 1 mps 561 mmHg 56%
    09:00 +15°C° 0 mm 1 mps 562 mmHg 48%
    10:00 +17°C° 0 mm 2 mps 563 mmHg 43%
    11:00 +18°C° 0 mm 2 mps 563 mmHg 37%
    12:00 +19°C° 0 mm 3 mps 563 mmHg 31%
    13:00 +19°C° 0 mm 3 mps 563 mmHg 33%
    14:00 +20°C° 0 mm 3 mps 562 mmHg 34%
    15:00 +20°C° 0 mm 3 mps 562 mmHg 36%
    16:00 +19°C° 0 mm 3 mps 562 mmHg 42%
    17:00 +18°C° 0 mm 3 mps 561 mmHg 48%
    18:00 +17°C° 0 mm 2 mps 561 mmHg 54%
    19:00 +16°C° 0 mm 2 mps 561 mmHg 56%
    20:00 +16°C° 0 mm 1 mps 562 mmHg 59%
    21:00 +15°C° 0 mm 1 mps 562 mmHg 61%
    22:00 +15°C° 0 mm 1 mps 562 mmHg 60%
    23:00 +15°C° 0 mm 1 mps 561 mmHg 60%

    25 January, Friday

    Time Temperature Precipitation Wind Pressure Humidity
    00:00 +14°C° 0 mm 1 mps 561 mmHg 59%
    01:00 +14°C° 0 mm 1 mps 561 mmHg 60%
    02:00 +13°C° 0 mm 1 mps 560 mmHg 61%
    03:00 +12°C° 0 mm 0 mps 560 mmHg 62%
    04:00 +12°C° 0 mm 1 mps 560 mmHg 62%
    05:00 +12°C° 0 mm 1 mps 560 mmHg 62%
    06:00 +12°C° 0 mm 1 mps 560 mmHg 63%
    07:00 +13°C° 0 mm 1 mps 561 mmHg 58%
    08:00 +14°C° 0 mm 1 mps 562 mmHg 53%
    09:00 +16°C° 0 mm 1 mps 563 mmHg 48%
    10:00 +18°C° 0 mm 1 mps 563 mmHg 45%
    11:00 +19°C° 0 mm 1 mps 563 mmHg 41%
    12:00 +19°C° 0 mm 2 mps 564 mmHg 38%
    13:00 +19°C° 0 mm 2 mps 563 mmHg 38%
    14:00 +19°C° 0 mm 2 mps 563 mmHg 39%
    15:00 +20°C° 0 mm 2 mps 563 mmHg 39%
    16:00 +19°C° 0 mm 2 mps 562 mmHg 42%
    17:00 +18°C° 0 mm 2 mps 562 mmHg 46%
    18:00 +17°C° 0 mm 2 mps 562 mmHg 49%
    19:00 +17°C° 0 mm 2 mps 562 mmHg 51%
    20:00 +16°C° 0 mm 1 mps 562 mmHg 53%
    21:00 +15°C° 0 mm 1 mps 562 mmHg 55%
    22:00 +15°C° 0 mm 1 mps 562 mmHg 55%
    23:00 +15°C° 0 mm 1 mps 561 mmHg 55%
    Show more